Torna al catalogo

COSMOS 1717

AttivoMilitareLEO
NORAD 16450·PAYLOAD·🇷🇺 Russia

Lanciato Jan 9, 1986 da Plesetsk Cosmodrome

Loading…

Prossimi Passaggi (prossime 24 ore)

TLE

AggiornatoSource: Space-Track

Epoca: Sep 14, 2026, 10:23 UTC

1 16450U 86002B   26257.43323667 -.00000034  00000-0 -13220-3 0  9998
2 16450  73.9871  65.8483 0024331 214.9487 170.2683 12.42994046845886

Traccia COSMOS 1717 in tempo reale con AllMySat

Download on the App Store